DLH7KM UACC-UAAA

Flight info

Callsign DLH7KM
Flight time 1h 19m
Altitude 39000
Route BANOS W333 ETEDA ETED1P
Aircraft A339/H-SADE1E2E3GHIJ3J5M1P2RWXY/LB2D1

Departure

Time 2026-05-05 10:02
Airport Nursultan Nazarbayev International Airport (UACC)

Arrival

Time 2026-05-05 11:22
Airport Almaty International Airport (UAAA)
Time Latitude Longitude Altitude Speed Heading
2026-05-05 09:49 51.02649 71.45915 1176 ft 0 kts 43°
2026-05-05 09:49 51.02649 71.45914 1176 ft 0 kts 43°
2026-05-05 09:49 51.02649 71.45915 1176 ft 0 kts 43°
2026-05-05 09:50 51.02649 71.45914 1176 ft 0 kts 43°
2026-05-05 09:51 51.02649 71.45915 1176 ft 0 kts 43°
2026-05-05 09:51 51.02649 71.45914 1176 ft 0 kts 43°
2026-05-05 09:51 51.02649 71.45915 1176 ft 0 kts 43°
2026-05-05 09:52 51.02649 71.45914 1176 ft 0 kts 43°
2026-05-05 09:54 51.02648 71.45913 1176 ft 1 kts 44°
2026-05-05 09:54 51.02638 71.45896 1176 ft 2 kts 46°
2026-05-05 09:54 51.02628 71.45879 1176 ft 2 kts 43°
2026-05-05 09:54 51.02616 71.45863 1176 ft 2 kts 43°
2026-05-05 09:55 51.02606 71.45847 1176 ft 2 kts 44°
2026-05-05 09:55 51.02595 71.45830 1176 ft 2 kts 44°
2026-05-05 09:55 51.02584 71.45815 1175 ft 2 kts 44°
2026-05-05 09:55 51.02580 71.45808 1175 ft 0 kts 44°
2026-05-05 09:57 51.02583 71.45812 1175 ft 1 kts 44°
2026-05-05 09:57 51.02584 71.45815 1175 ft 0 kts 46°
2026-05-05 09:57 51.02589 71.45823 1176 ft 2 kts 52°
2026-05-05 09:58 51.02596 71.45863 1176 ft 2 kts 93°
2026-05-05 09:58 51.02549 71.45957 1177 ft 14 kts 139°
2026-05-05 09:58 51.02467 71.46063 1178 ft 15 kts 140°
2026-05-05 09:58 51.02380 71.46192 1177 ft 18 kts 132°
2026-05-05 09:59 51.02397 71.46379 1176 ft 20 kts 45°
2026-05-05 09:59 51.02503 71.46549 1177 ft 22 kts 44°
2026-05-05 09:59 51.02613 71.46719 1177 ft 22 kts 45°
2026-05-05 09:59 51.02728 71.46897 1176 ft 23 kts 45°
2026-05-05 10:00 51.02843 71.47077 1175 ft 23 kts 45°
2026-05-05 10:00 51.02956 71.47253 1173 ft 22 kts 44°
2026-05-05 10:00 51.03070 71.47428 1172 ft 23 kts 45°
2026-05-05 10:00 51.03186 71.47615 1172 ft 24 kts 45°
2026-05-05 10:01 51.03305 71.47802 1172 ft 24 kts 45°
2026-05-05 10:01 51.03408 71.47975 1173 ft 20 kts 60°
2026-05-05 10:01 51.03432 71.48190 1173 ft 20 kts 92°
2026-05-05 10:01 51.03357 71.48319 1172 ft 15 kts 192°
2026-05-05 10:02 51.03259 71.48193 1173 ft 33 kts 227°
2026-05-05 10:02 51.02880 71.47594 1175 ft 118 kts 226°
2026-05-05 10:02 51.02130 71.46413 1320 ft 174 kts 225°
2026-05-05 10:02 51.01213 71.44996 1832 ft 203 kts 226°
2026-05-05 10:03 51.00129 71.43266 2297 ft 238 kts 228°
2026-05-05 10:03 50.98915 71.41407 2863 ft 251 kts 216°
2026-05-05 10:03 50.97266 71.40599 3829 ft 258 kts 184°
2026-05-05 10:03 50.95540 71.41213 4795 ft 267 kts 158°
2026-05-05 10:04 50.94105 71.43111 5689 ft 280 kts 130°
2026-05-05 10:04 50.93024 71.45692 6597 ft 283 kts 133°
2026-05-05 10:04 50.91672 71.47949 7425 ft 287 kts 141°
2026-05-05 10:04 50.90189 71.50138 7971 ft 304 kts 141°
2026-05-05 10:05 50.88612 71.52496 8473 ft 323 kts 140°
2026-05-05 10:05 50.86964 71.55042 8953 ft 343 kts 139°
2026-05-05 10:05 50.85241 71.57778 9409 ft 362 kts 138°
2026-05-05 10:05 50.83443 71.60677 9999 ft 375 kts 137°
2026-05-05 10:06 50.81618 71.63649 10820 ft 381 kts 137°
2026-05-05 10:06 50.79772 71.66671 11706 ft 385 kts 137°
2026-05-05 10:06 50.77922 71.69698 12543 ft 389 kts 138°
2026-05-05 10:06 50.76038 71.72777 13367 ft 394 kts 138°
2026-05-05 10:07 50.74129 71.75890 14164 ft 400 kts 138°
2026-05-05 10:07 50.72189 71.79044 14963 ft 405 kts 138°
2026-05-05 10:07 50.70231 71.82227 15780 ft 409 kts 138°
2026-05-05 10:07 50.68257 71.85438 16568 ft 414 kts 138°
2026-05-05 10:08 50.66239 71.88711 17353 ft 419 kts 138°
2026-05-05 10:08 50.64202 71.92017 18154 ft 424 kts 138°
2026-05-05 10:08 50.62154 71.95334 18927 ft 428 kts 137°
2026-05-05 10:08 50.60080 71.98687 19673 ft 433 kts 137°
2026-05-05 10:09 50.57978 72.02084 20392 ft 438 kts 137°
2026-05-05 10:09 50.55864 72.05495 21108 ft 442 kts 137°
2026-05-05 10:09 50.53701 72.08979 21797 ft 446 kts 137°
2026-05-05 10:09 50.51530 72.12470 22466 ft 450 kts 137°
2026-05-05 10:10 50.49347 72.15979 23103 ft 454 kts 137°
2026-05-05 10:10 50.47136 72.19524 23686 ft 458 kts 137°
2026-05-05 10:10 50.44926 72.23066 24425 ft 459 kts 137°
2026-05-05 10:10 50.42718 72.26601 25226 ft 457 kts 137°
2026-05-05 10:11 50.40491 72.30160 26024 ft 455 kts 137°
2026-05-05 10:11 50.38279 72.33687 26777 ft 454 kts 137°
2026-05-05 10:11 50.36091 72.37171 27507 ft 452 kts 137°
2026-05-05 10:11 50.33905 72.40646 28223 ft 451 kts 137°
2026-05-05 10:12 50.31710 72.44129 28893 ft 450 kts 137°
2026-05-05 10:12 50.29518 72.47607 29589 ft 449 kts 137°
2026-05-05 10:12 50.27336 72.51064 30269 ft 447 kts 137°
2026-05-05 10:12 50.25162 72.54501 30895 ft 446 kts 137°
2026-05-05 10:13 50.22993 72.57927 31503 ft 446 kts 137°
2026-05-05 10:13 50.20809 72.61370 32110 ft 445 kts 137°
2026-05-05 10:13 50.18653 72.64762 32682 ft 444 kts 137°
2026-05-05 10:13 50.16455 72.68089 33244 ft 443 kts 140°
2026-05-05 10:14 50.14223 72.71370 33800 ft 443 kts 140°
2026-05-05 10:14 50.11995 72.74626 34332 ft 442 kts 140°
2026-05-05 10:14 50.09746 72.77910 34844 ft 440 kts 140°
2026-05-05 10:14 50.07523 72.81159 35317 ft 439 kts 140°
2026-05-05 10:15 50.05312 72.84391 35750 ft 439 kts 140°
2026-05-05 10:15 50.03096 72.87630 36163 ft 439 kts 140°
2026-05-05 10:15 50.00906 72.90829 36572 ft 438 kts 140°
2026-05-05 10:15 49.98670 72.94089 37039 ft 439 kts 140°
2026-05-05 10:16 49.94237 73.00546 37099 ft 440 kts 140°
2026-05-05 10:16 49.89777 73.07025 37110 ft 440 kts 140°
2026-05-05 10:17 49.85353 73.13435 37095 ft 439 kts 140°
2026-05-05 10:17 49.80887 73.19887 37098 ft 438 kts 140°
2026-05-05 10:18 49.76434 73.26307 37096 ft 438 kts 140°
2026-05-05 10:18 49.71857 73.32475 37089 ft 437 kts 145°
2026-05-05 10:19 49.66890 73.37643 37091 ft 434 kts 153°
2026-05-05 10:19 49.61519 73.41763 37094 ft 431 kts 160°
2026-05-05 10:20 49.55960 73.45116 37093 ft 430 kts 162°
2026-05-05 10:20 49.50402 73.48444 37106 ft 430 kts 162°
2026-05-05 10:21 49.44834 73.51782 37099 ft 430 kts 161°
2026-05-05 10:21 49.39259 73.55125 37133 ft 430 kts 161°
2026-05-05 10:22 49.33719 73.58437 37119 ft 431 kts 161°
2026-05-05 10:22 49.28145 73.61762 37141 ft 432 kts 161°
2026-05-05 10:23 49.22534 73.65101 37165 ft 433 kts 162°
2026-05-05 10:23 49.16938 73.68424 37164 ft 432 kts 162°
2026-05-05 10:24 49.11368 73.71722 37174 ft 432 kts 162°
2026-05-05 10:24 49.05757 73.75034 37175 ft 432 kts 162°
2026-05-05 10:25 49.00185 73.78316 37185 ft 432 kts 162°
2026-05-05 10:25 48.94565 73.81617 37189 ft 433 kts 161°
2026-05-05 10:26 48.88985 73.84880 37185 ft 433 kts 161°
2026-05-05 10:26 48.83346 73.88167 37183 ft 433 kts 162°
2026-05-05 10:27 48.77756 73.91415 37185 ft 433 kts 162°
2026-05-05 10:27 48.72130 73.94675 37193 ft 433 kts 162°
2026-05-05 10:28 48.66533 73.97909 37192 ft 433 kts 162°
2026-05-05 10:28 48.60896 74.01157 37228 ft 442 kts 161°
2026-05-05 10:29 48.57996 74.02825 37407 ft 448 kts 161°
2026-05-05 10:29 48.55062 74.04511 37587 ft 454 kts 161°
2026-05-05 10:29 48.52120 74.06200 37762 ft 460 kts 161°
2026-05-05 10:29 48.49120 74.07920 37946 ft 465 kts 161°
2026-05-05 10:30 48.46088 74.09657 38257 ft 468 kts 161°
2026-05-05 10:30 48.43063 74.11388 38682 ft 467 kts 161°
2026-05-05 10:30 48.40063 74.13104 39152 ft 467 kts 161°
2026-05-05 10:30 48.37014 74.14844 39208 ft 467 kts 161°
2026-05-05 10:31 48.30978 74.18280 39202 ft 466 kts 161°
2026-05-05 10:31 48.24929 74.21714 39198 ft 467 kts 161°
2026-05-05 10:32 48.18874 74.25140 39192 ft 467 kts 161°
2026-05-05 10:32 48.12781 74.28581 39195 ft 467 kts 161°
2026-05-05 10:33 48.06766 74.32025 39193 ft 467 kts 161°
2026-05-05 10:33 48.00711 74.35490 39190 ft 467 kts 161°
2026-05-05 10:34 47.94635 74.38953 39198 ft 468 kts 161°
2026-05-05 10:34 47.88569 74.42394 39173 ft 469 kts 160°
2026-05-05 10:35 47.82499 74.45834 39196 ft 468 kts 161°
2026-05-05 10:35 47.76440 74.49253 39180 ft 468 kts 160°
2026-05-05 10:36 47.70336 74.52692 39182 ft 468 kts 161°
2026-05-05 10:36 47.64274 74.56095 39186 ft 468 kts 160°
2026-05-05 10:37 47.58219 74.59484 39184 ft 468 kts 160°
2026-05-05 10:37 47.52123 74.62896 39172 ft 469 kts 160°
2026-05-05 10:38 47.46038 74.66332 39182 ft 468 kts 161°
2026-05-05 10:38 47.39992 74.69733 39172 ft 468 kts 161°
2026-05-05 10:39 47.33891 74.73147 39158 ft 468 kts 161°
2026-05-05 10:39 47.27848 74.76524 39165 ft 468 kts 161°
2026-05-05 10:40 47.21746 74.79920 39148 ft 468 kts 161°
2026-05-05 10:40 47.15690 74.83283 39147 ft 468 kts 161°
2026-05-05 10:41 47.09605 74.86656 39145 ft 469 kts 161°
2026-05-05 10:41 47.03494 74.90031 39132 ft 469 kts 160°
2026-05-05 10:42 46.94390 74.95048 39142 ft 469 kts 160°
2026-05-05 10:43 46.88311 74.98417 39121 ft 469 kts 159°
2026-05-05 10:43 46.82321 75.02206 39128 ft 469 kts 157°
2026-05-05 10:44 46.76357 75.05995 39133 ft 470 kts 157°
2026-05-05 10:44 46.70380 75.09778 39142 ft 470 kts 157°
2026-05-05 10:45 46.64361 75.13577 39114 ft 470 kts 157°
2026-05-05 10:45 46.58407 75.17328 39145 ft 470 kts 157°
2026-05-05 10:46 46.52402 75.21101 39125 ft 470 kts 157°
2026-05-05 10:46 46.46429 75.24842 39129 ft 470 kts 157°
2026-05-05 10:47 46.40431 75.28591 39136 ft 471 kts 157°
2026-05-05 10:47 46.34447 75.32323 39132 ft 470 kts 157°
2026-05-05 10:48 46.28431 75.36064 39134 ft 471 kts 157°
2026-05-05 10:48 46.22456 75.39770 39126 ft 470 kts 157°
2026-05-05 10:49 46.16452 75.43522 39135 ft 470 kts 157°
2026-05-05 10:49 46.10458 75.47266 39134 ft 470 kts 157°
2026-05-05 10:50 46.04460 75.50998 39137 ft 471 kts 157°
2026-05-05 10:50 45.98453 75.54724 39134 ft 471 kts 157°
2026-05-05 10:51 45.92548 75.58380 39119 ft 471 kts 157°
2026-05-05 10:51 45.86598 75.62053 39132 ft 471 kts 157°
2026-05-05 10:52 45.80592 75.65748 39120 ft 471 kts 158°
2026-05-05 10:52 45.74607 75.69421 39124 ft 470 kts 158°
2026-05-05 10:53 45.68620 75.73096 39134 ft 470 kts 157°
2026-05-05 10:53 45.62592 75.76795 39107 ft 470 kts 157°
2026-05-05 10:54 45.56616 75.80449 39106 ft 469 kts 157°
2026-05-05 10:54 45.50646 75.84088 39106 ft 469 kts 157°
2026-05-05 10:55 45.44650 75.87733 39122 ft 469 kts 157°
2026-05-05 10:55 45.38677 75.91356 39101 ft 469 kts 157°
2026-05-05 10:56 45.32682 75.94984 39090 ft 468 kts 157°
2026-05-05 10:56 45.26722 75.98582 39138 ft 468 kts 157°
2026-05-05 10:57 45.20720 76.02196 39097 ft 468 kts 157°
2026-05-05 10:57 45.14752 76.05783 39117 ft 468 kts 157°
2026-05-05 10:58 45.08757 76.09376 39081 ft 468 kts 157°
2026-05-05 10:58 45.02793 76.12943 39113 ft 467 kts 157°
2026-05-05 10:59 44.96857 76.16486 39097 ft 466 kts 157°
2026-05-05 10:59 44.90887 76.20042 39089 ft 466 kts 157°
2026-05-05 11:00 44.84903 76.23597 39107 ft 466 kts 157°
2026-05-05 11:00 44.78962 76.27120 39100 ft 467 kts 157°
2026-05-05 11:01 44.72994 76.30650 39089 ft 467 kts 157°
2026-05-05 11:01 44.69981 76.32428 38437 ft 470 kts 157°
2026-05-05 11:01 44.66965 76.34204 37501 ft 474 kts 157°
2026-05-05 11:01 44.63929 76.35991 36582 ft 478 kts 157°
2026-05-05 11:02 44.60884 76.37781 35832 ft 480 kts 157°
2026-05-05 11:02 44.57807 76.39590 35108 ft 474 kts 157°
2026-05-05 11:02 44.54826 76.41339 34423 ft 469 kts 157°
2026-05-05 11:02 44.51820 76.43100 33616 ft 471 kts 157°
2026-05-05 11:03 44.48794 76.44867 32807 ft 472 kts 158°
2026-05-05 11:03 44.45638 76.46193 31989 ft 473 kts 168°
2026-05-05 11:03 44.42395 76.46732 31191 ft 475 kts 178°
2026-05-05 11:03 44.39122 76.46553 30394 ft 474 kts 186°
2026-05-05 11:04 44.35854 76.45987 29593 ft 476 kts 187°
2026-05-05 11:04 44.32561 76.45374 28781 ft 476 kts 187°
2026-05-05 11:04 44.29299 76.44769 27990 ft 478 kts 187°
2026-05-05 11:04 44.26020 76.44170 27233 ft 479 kts 187°
2026-05-05 11:05 44.22723 76.43581 26442 ft 480 kts 187°
2026-05-05 11:05 44.19423 76.42998 25742 ft 476 kts 187°
2026-05-05 11:05 44.16217 76.42436 25011 ft 461 kts 186°
2026-05-05 11:05 44.13085 76.41890 24198 ft 448 kts 186°
2026-05-05 11:06 44.10024 76.41357 23393 ft 436 kts 186°
2026-05-05 11:06 44.07061 76.40842 22787 ft 422 kts 186°
2026-05-05 11:06 44.04231 76.40350 22247 ft 412 kts 186°
2026-05-05 11:06 44.01379 76.39855 21691 ft 410 kts 186°
2026-05-05 11:07 43.98571 76.39371 21153 ft 407 kts 186°
2026-05-05 11:07 43.95789 76.38891 20605 ft 404 kts 185°
2026-05-05 11:07 43.92996 76.38409 20078 ft 401 kts 185°
2026-05-05 11:07 43.90249 76.37936 19542 ft 398 kts 185°
2026-05-05 11:08 43.87507 76.37463 19006 ft 396 kts 185°
2026-05-05 11:08 43.84803 76.36998 18484 ft 393 kts 185°
2026-05-05 11:08 43.82098 76.36533 18008 ft 390 kts 185°
2026-05-05 11:08 43.79416 76.36073 17492 ft 387 kts 185°
2026-05-05 11:09 43.76793 76.35625 16984 ft 384 kts 185°
2026-05-05 11:09 43.74136 76.35170 16465 ft 381 kts 185°
2026-05-05 11:09 43.71530 76.34724 15959 ft 378 kts 185°
2026-05-05 11:09 43.68925 76.34276 15411 ft 376 kts 185°
2026-05-05 11:10 43.66350 76.33836 14952 ft 373 kts 185°
2026-05-05 11:10 43.63797 76.33400 14452 ft 370 kts 185°
2026-05-05 11:10 43.61247 76.32989 13965 ft 367 kts 182°
2026-05-05 11:10 43.58722 76.33102 13470 ft 362 kts 170°
2026-05-05 11:11 43.56273 76.33792 13042 ft 359 kts 166°
2026-05-05 11:11 43.53835 76.34559 12801 ft 355 kts 165°
2026-05-05 11:11 43.51514 76.35300 12542 ft 337 kts 165°
2026-05-05 11:11 43.49237 76.36043 12320 ft 334 kts 163°
2026-05-05 11:12 43.47176 76.37355 11935 ft 331 kts 143°
2026-05-05 11:12 43.45457 76.39444 11524 ft 329 kts 135°
2026-05-05 11:12 43.43827 76.41638 11154 ft 326 kts 134°
2026-05-05 11:12 43.42211 76.43809 10827 ft 321 kts 135°
2026-05-05 11:13 43.40649 76.45884 10350 ft 312 kts 135°
2026-05-05 11:13 43.39106 76.47916 10108 ft 297 kts 135°
2026-05-05 11:13 43.37663 76.49807 10129 ft 278 kts 135°
2026-05-05 11:13 43.36282 76.51615 9801 ft 272 kts 135°
2026-05-05 11:14 43.34919 76.53400 9490 ft 267 kts 135°
2026-05-05 11:14 43.33598 76.55129 9182 ft 262 kts 135°
2026-05-05 11:14 43.32296 76.56827 8898 ft 258 kts 135°
2026-05-05 11:14 43.30997 76.58522 8580 ft 253 kts 134°
2026-05-05 11:15 43.29746 76.60156 8257 ft 248 kts 135°
2026-05-05 11:15 43.28502 76.61781 7925 ft 243 kts 135°
2026-05-05 11:15 43.27305 76.63344 7645 ft 237 kts 134°
2026-05-05 11:15 43.26329 76.65121 7354 ft 231 kts 111°
2026-05-05 11:16 43.25889 76.67219 7067 ft 226 kts 102°
2026-05-05 11:16 43.25565 76.69302 6807 ft 222 kts 101°
2026-05-05 11:16 43.25254 76.71326 6538 ft 217 kts 101°
2026-05-05 11:16 43.24935 76.73339 6239 ft 212 kts 101°
2026-05-05 11:17 43.24624 76.75256 5969 ft 206 kts 102°
2026-05-05 11:17 43.24312 76.77154 5694 ft 203 kts 102°
2026-05-05 11:17 43.24000 76.79032 5454 ft 200 kts 102°
2026-05-05 11:17 43.23866 76.80859 5224 ft 193 kts 77°
2026-05-05 11:18 43.24421 76.82513 5017 ft 188 kts 56°
2026-05-05 11:18 43.25183 76.83908 4806 ft 177 kts 52°
2026-05-05 11:18 43.25908 76.85198 4582 ft 168 kts 53°
2026-05-05 11:18 43.26594 76.86488 4367 ft 168 kts 54°
2026-05-05 11:19 43.27267 76.87810 4227 ft 168 kts 55°
2026-05-05 11:19 43.27924 76.89137 4218 ft 166 kts 56°
2026-05-05 11:19 43.28551 76.90416 4094 ft 155 kts 56°
2026-05-05 11:19 43.29132 76.91605 3899 ft 149 kts 56°
2026-05-05 11:20 43.29701 76.92767 3707 ft 143 kts 55°
2026-05-05 11:20 43.30248 76.93881 3540 ft 143 kts 56°
2026-05-05 11:20 43.30799 76.95021 3375 ft 142 kts 56°
2026-05-05 11:20 43.31354 76.96146 3174 ft 145 kts 54°
2026-05-05 11:21 43.31933 76.97293 2995 ft 145 kts 54°
2026-05-05 11:21 43.32500 76.98419 2831 ft 145 kts 56°
2026-05-05 11:21 43.33054 76.99580 2645 ft 147 kts 54°
2026-05-05 11:21 43.33641 77.00737 2428 ft 146 kts 56°
2026-05-05 11:22 43.34202 77.01896 2242 ft 144 kts 54°
2026-05-05 11:22 43.34641 77.02785 2232 ft 61 kts 55°
2026-05-05 11:22 43.34740 77.02975 2230 ft 10 kts 45°
2026-05-05 11:22 43.34782 77.02949 2229 ft 10 kts 284°
2026-05-05 11:23 43.34783 77.02835 2228 ft 13 kts 269°
2026-05-05 11:23 43.34780 77.02706 2228 ft 14 kts 266°
2026-05-05 11:23 43.34774 77.02563 2227 ft 15 kts 267°
2026-05-05 11:23 43.34777 77.02412 2227 ft 16 kts 275°
2026-05-05 11:24 43.34786 77.02253 2225 ft 17 kts 273°
2026-05-05 11:24 43.34793 77.02075 2223 ft 19 kts 272°
2026-05-05 11:24 43.34801 77.01919 2223 ft 16 kts 274°
2026-05-05 11:24 43.34809 77.01759 2223 ft 17 kts 274°
2026-05-05 11:25 43.34818 77.01594 2223 ft 17 kts 274°
2026-05-05 11:25 43.34825 77.01431 2223 ft 11 kts 273°
2026-05-05 11:25 43.34825 77.01332 2223 ft 8 kts 254°
2026-05-05 11:25 43.34797 77.01278 2225 ft 3 kts 227°
2026-05-05 11:26 43.34787 77.01263 2226 ft 0 kts 227°